Location: Bay Ridge
(40.6340°N, 74.0146°W)
Time: 00:44:45
(UTC+00:00)

Cosmos 1833 Rocket - Pass Details

Date: 15 November 2019
Orbit: 832 x 840 km, 71.0° (Epoch: 07 December)

Event Time Altitude Azimuth Distance (km) Brightness Sun altitude
Exits shadow 08:35:47 25° 32° (NNE) 1,636 4.4 -35.4°
Drops below altitude 10° 08:38:00 10° 28° (NNE) 2,450 5.4 -35.0°
Sets 08:40:28 0° 26° (NNE) 3,389 6.2 -34.5°
